This is the latest recevied weather packets stored in our database for station/object K4KMJ. If no packets are shown the sender has not sent any weather packets the latest 10 day(s).
| Time | Temp. | Humidity | Pressure | Rain* | Wind** | Luminosity | Snow |
|---|---|---|---|---|---|---|---|
| 1777567129 | 30° C | 61% | 1013.5 hPa | 0 mm | - | 497 W/m² | - |
| 1777566827 | 30° C | 63% | 1013.6 hPa | 0 mm | - | 1000 W/m² | - |
| 1777566524 | 30° C | 64% | 1013.7 hPa | 0 mm | - | 786 W/m² | - |
| 1777566222 | 30° C | 65% | 1013.6 hPa | 0 mm | - | 874 W/m² | - |
| 1777565918 | 29.44° C | 66% | 1013.4 hPa | 0 mm | - | 797 W/m² | - |
| 1777565614 | 29.44° C | 67% | 1013.7 hPa | 0 mm | - | 799 W/m² | - |
| 1777565311 | 28.89° C | 67% | 1013.9 hPa | 0 mm | - | 798 W/m² | - |
| 1777565006 | 28.89° C | 69% | 1013.7 hPa | 0 mm | - | 797 W/m² | - |
| 1777564702 | 28.89° C | 69% | 1014 hPa | 0 mm | - | 820 W/m² | - |
| 1777564397 | 28.33° C | 70% | 1014.1 hPa | 0 mm | - | 840 W/m² | - |
| 1777564094 | 28.33° C | 69% | 1014 hPa | 0 mm | - | 410 W/m² | - |
| 1777563790 | 29.44° C | 70% | 1014.5 hPa | 0 mm | - | 621 W/m² | - |
| 1777563487 | 28.33° C | 70% | 1014.4 hPa | 0 mm | - | 861 W/m² | - |
| 1777563186 | 28.89° C | 71% | 1014.2 hPa | 0 mm | - | 760 W/m² | - |
| 1777562883 | 27.78° C | 72% | 1014.3 hPa | 0 mm | - | 823 W/m² | - |
| 1777562579 | 27.78° C | 72% | 1014.3 hPa | 0 mm | - | 757 W/m² | - |
| 1777562277 | 27.78° C | 73% | 1014.4 hPa | 0 mm | - | 866 W/m² | - |
| 1777561974 | 27.78° C | 73% | 1014.5 hPa | 0 mm | - | 747 W/m² | - |
| 1777561672 | 27.78° C | 73% | 1014.4 hPa | 0 mm | - | 777 W/m² | - |
| 1777561367 | 27.78° C | 75% | 1014.5 hPa | 0 mm | - | 750 W/m² | - |
| 1777561063 | 27.78° C | 76% | 1014.3 hPa | 0 mm | - | 744 W/m² | - |
| 1777560758 | 27.22° C | 77% | 1014.3 hPa | 0 mm | - | 728 W/m² | - |
| 1777560455 | 27.22° C | 79% | 1014.2 hPa | 0 mm | - | 734 W/m² | - |
| 1777560153 | 26.11° C | 80% | 1014.7 hPa | 0 mm | - | 548 W/m² | - |
| 1777559850 | 25.56° C | 82% | 1014.7 hPa | 0 mm | - | 748 W/m² | - |
* Rain latest hour (hover to see other rain measurements)
** Current wind speed in m/s (hover to see current wind gust speed)